FENGYUN 1C DEB, 30885

Orbit data source: Space-Track

FENGYUN 1C DEB, 30885 is space debris in SSO originally from a launch on Mon, 10 May 1999 UTC launched from the Taiyaun Space Center, China (TSC). Fengyun 1C debris stems from the Chinese weather satellite Fengyun-1C, which was intentionally destroyed by a Chinese anti-satellite missile in 2007. This event dramatically increased the amount of space debris, with thousands of trackable fragments posing hazards to satellites and human spaceflight. The Fengyun 1C debris cloud has become a focal point in discussions about space sustainability and the need for international regulations to prevent the creation of new debris.

Loading next visibility...
Identifier
30885, 1999-025AXX
Orbit
SSO
Country
Flag of CNCN / PRC
Related business
Manufacturer
Unknown
Mission
Spacecraft
Bus & Motor
Unknown
Mass
Unknown
Launch date (UTC)
1999-05-10 (27 years ago)
Launch vehicle
Unknown
Launch site
Taiyaun Space Center, China (TSC)
Object type
Payload
Rocket body
Debris
Shape & HBR
Unknown shape, 0.1 m
Radar Cross Section
Small (<0.1 m²)

Expand to show TLE details & history
Last TLE update: 1 day ago

TLE from 1 day ago
0 FENGYUN 1C DEB
1 30885U 99025AXX 26062.05272071  .00008396  00000-0  20964-2 0  9998
2 30885  99.0265 273.3156 0053684 338.1715 175.0087 14.50962587981416
Epoch: 2026-03-03T01:15Z
TLE epoch observation values (Epoch: 2026-03-03T01:15:55.069Z)
Latitude
26.44588°
Longitude
-81.99331°
Altitude
763.728 km
Speed
7.455 km/s
True Right ascension
06h 31m 17s
True Declination
26° 18' 33"
Sunlit
Object was in daylight at epoch
Visualization orbit readout
Latitude
Unknown
Longitude
Unknown
Altitude
Unknown
Speed
Unknown
Apparent Right ascension
Unknown
Apparent Declination
Unknown
Sunlit
N/A
Visualization observer readout
Local Sidereal Time
13:59:35
Azimuth
Unknown
Elevation
Unknown
Doppler factor
Unknown
Orbital elements
Apogee altitude
757.743 km
Perigee altitude
681.536 km
Semi-major axis
7,097.776 km
Eccentricity
0.00537
Inclination
99.0265°
RAAN
273.3156°
Arg. of periapsis
338.1715°
True anomaly
175.06187°
Mean anomaly
175.0087°
Eccentric anomaly
175.03532°
Mean motion
3.62961 °/min
Orbital period
99.18 mins
BSTAR
0.0020964
Loading maneuver chart data...
Computing Atmospheric mass density...
Loading historical data...
Loading historical data...
Loading historical data...
Loading historical data...
Loading historical data...
Loading historical data...
Loading historical data...

Documentation

Showing up to 5 results
|